{"data":{"norad_id":65643,"epoch":"2026-05-24T18:05:03.092064Z","epoch_age_seconds":103116,"freshness":"FRESH","line1":"1 65643U 25210X   26144.75350801  .00010701  00000+0  32740-3 0  9997","line2":"2 65643  53.1592 312.5766 0001069  89.2171 270.8954 15.34398895 39399","mean_motion":15.34398895,"eccentricity":0.0001069,"inclination_deg":53.1592,"raan_deg":312.5766,"arg_perigee_deg":89.2171,"mean_anomaly_deg":270.8954,"bstar":0.0003274,"rev_number":3939,"period_min":93.847825665959,"perigee_km":461.97523832918,"apogee_km":463.43781067471,"semimajor_km":6840.8435245019,"source":"CELESTRAK","updated_at":"2026-05-25T13:38:20.885692Z"}}